Weather in Vysokoye

Russia / Kaluga Oblast     53°55′01″N   34°56′45″E
temp.,
°C
wind,
m/s
gust,
m/s
humid.,
%
clouds,
%
prec.,
mm/h
press.,
hPa
HPBL,
m
16 may, sun
sun1600:00+11ssw38972 0.0 1011188
03:00+10ssw26975 0.0 1012110
06:00+11s25978 0.1 1012127
09:00+16ssw35815 0.1 1013514
12:00+20sw46580 0.3 10121487
15:00+21ssw355079 0.3 10122053
18:00+20ssw136592 0.0 1012148
21:00+16s1176100 0.0 101212
17 may, mon
mon1700:00+13e22865 0.0 101216
03:00+12e348634 0.0 101362
06:00+13ene31086100 0.0 1012217
09:00+18e5128481 0.6 1010456
12:00+24ese610595 0.0 10091197
15:00+26ese61151100 0.0 10071805
18:00+23ese6136279 0.0 10061025
21:00+19ese515725 0.0 1006654
18 may, tue
tue1800:00+17se5158058 0.0 1006502
03:00+15se4109148 0.3 1006266
06:00+15se31094100 0.0 1006251
09:00+21se487551 0.0 1006655
12:00+21se5776100 0.3 1006807
15:00+23se5869100 2.0 10051437
18:00+20sse2783100 1.1 1005245
21:00+15s229149 2.9 100547
19 may, wed
wed1900:00+14sse2696100 0.0 1006138
03:00+14e1295100 0.0 100650
06:00+14ese2695100 0.1 1005196
09:00+17sse488367 0.2 1005594
12:00+20se586493 0.8 10051390
15:00+20sse5769100 2.1 10051500
18:00+17sse3785100 1.2 1006741
21:00+14sse3795100 2.3 1006163
20 may, thu
thu2000:00+13se239580 0.1 100651
03:00+11se2297100 0.1 100631
06:00+12s2597100 0.8 1005183
09:00+14s358491 0.9 1005497
12:00+16ssw457940 1.6 1005906
15:00+17sw6876100 3.4 10051321
18:00+13wsw7118645 1.1 10081029
21:00+11wsw61284100 1.1 1010856